Time,TemperatureF,DewpointF,PressureIn,WindDirection,WindDirectionDegrees,WindSpeedMPH,WindSpeedGustMPH,Humidity,HourlyPrecipIn,Conditions,Clouds,dailyrainin,SolarRadiationWatts/m^2,SoftwareType,DateUTC
2013-02-20 00:02:00,31.0,29.0,-100.00,NNW,346,1.0,6.0,91,0.00,,,0.00,0.000000,,2013-02-20 05:02:00,
2013-02-20 00:12:00,31.0,29.0,-100.00,NNW,346,1.0,6.0,91,0.00,,,0.00,0.000000,,2013-02-20 05:12:00,
2013-02-20 00:22:00,31.0,29.0,-100.00,NNW,346,1.0,6.0,91,0.00,,,0.00,0.000000,,2013-02-20 05:22:00,
2013-02-20 00:52:00,30.0,28.0,-100.00,SW,229,0.0,4.0,93,0.00,,,-99.99,0.000000,,2013-02-20 05:52:00,
2013-02-20 01:02:00,30.0,28.0,-100.00,SW,229,0.0,4.0,93,0.00,,,-99.99,0.000000,,2013-02-20 06:02:00,
2013-02-20 01:11:00,30.0,28.0,-100.00,SW,229,0.0,4.0,93,0.00,,,-99.99,0.000000,,2013-02-20 06:11:00,
2013-02-20 01:22:00,30.0,28.0,-100.00,SW,229,0.0,4.0,93,0.00,,,-99.99,0.000000,,2013-02-20 06:22:00,
2013-02-20 01:52:00,30.0,29.0,-100.00,South,185,0.0,4.0,95,0.00,,,0.00,0.000000,,2013-02-20 06:52:00,
2013-02-20 02:02:00,30.0,29.0,-100.00,South,185,0.0,4.0,95,0.00,,,0.00,0.000000,,2013-02-20 07:02:00,
2013-02-20 02:11:00,30.0,29.0,-100.00,South,185,0.0,4.0,95,0.00,,,0.00,0.000000,,2013-02-20 07:11:00,
2013-02-20 02:21:00,30.0,29.0,-100.00,South,185,0.0,4.0,95,0.00,,,0.00,0.000000,,2013-02-20 07:21:00,
2013-02-20 02:52:00,30.0,28.0,-100.00,WNW,289,4.0,9.0,93,0.00,,,0.00,0.000000,,2013-02-20 07:52:00,
2013-02-20 03:05:00,30.0,28.0,-100.00,WNW,289,4.0,9.0,93,0.00,,,0.00,0.000000,,2013-02-20 08:05:00,
2013-02-20 03:11:00,30.0,28.0,-100.00,WNW,289,4.0,9.0,93,0.00,,,0.00,0.000000,,2013-02-20 08:11:00,
2013-02-20 03:22:00,30.0,28.0,-100.00,WNW,289,4.0,9.0,93,0.00,,,0.00,0.000000,,2013-02-20 08:22:00,
2013-02-20 03:52:00,26.0,24.0,-100.00,WNW,289,7.0,15.0,92,0.00,,,0.00,0.000000,,2013-02-20 08:52:00,
2013-02-20 04:02:00,26.0,24.0,-100.00,WNW,289,7.0,15.0,92,0.00,,,0.00,0.000000,,2013-02-20 09:02:00,
2013-02-20 04:11:00,26.0,24.0,-100.00,WNW,289,7.0,15.0,92,0.00,,,0.00,0.000000,,2013-02-20 09:11:00,
2013-02-20 04:21:00,26.0,24.0,-100.00,WNW,289,7.0,15.0,92,0.00,,,0.00,0.000000,,2013-02-20 09:21:00,
2013-02-20 04:52:00,25.0,23.0,-100.00,WNW,288,5.0,12.0,93,0.00,,,0.00,0.000000,,2013-02-20 09:52:00,
2013-02-20 05:01:00,25.0,23.0,-100.00,WNW,288,5.0,12.0,93,0.00,,,0.00,0.000000,,2013-02-20 10:01:00,
2013-02-20 05:12:00,25.0,23.0,-100.00,WNW,288,5.0,12.0,93,0.00,,,0.00,0.000000,,2013-02-20 10:12:00,
2013-02-20 05:22:00,25.0,23.0,-100.00,WNW,288,5.0,12.0,93,0.00,,,0.00,0.000000,,2013-02-20 10:22:00,
2013-02-20 05:52:00,24.0,22.0,-100.00,WNW,291,6.0,14.0,92,0.00,,,0.00,0.000000,,2013-02-20 10:52:00,
2013-02-20 06:02:00,24.0,22.0,-100.00,WNW,291,6.0,14.0,92,0.00,,,0.00,0.000000,,2013-02-20 11:02:00,
2013-02-20 06:11:00,24.0,22.0,-100.00,WNW,291,6.0,14.0,92,0.00,,,0.00,0.000000,,2013-02-20 11:11:00,
2013-02-20 06:21:00,24.0,22.0,-100.00,WNW,291,6.0,14.0,92,0.00,,,0.00,0.000000,,2013-02-20 11:21:00,
2013-02-20 06:52:00,24.0,22.0,-100.00,WNW,289,4.0,11.0,91,0.00,,,0.00,0.000000,,2013-02-20 11:52:00,
2013-02-20 07:02:00,24.0,22.0,-100.00,WNW,289,4.0,11.0,91,0.00,,,0.00,0.000000,,2013-02-20 12:02:00,
2013-02-20 07:12:00,24.0,22.0,-100.00,WNW,289,4.0,11.0,91,0.00,,,0.00,0.000000,,2013-02-20 12:12:00,
2013-02-20 07:22:00,24.0,22.0,-100.00,WNW,289,4.0,11.0,91,0.00,,,0.00,0.000000,,2013-02-20 12:22:00,
2013-02-20 07:53:00,24.0,22.0,-100.00,WNW,283,4.0,9.0,90,0.00,,,0.00,2.000000,,2013-02-20 12:53:00,
2013-02-20 08:02:00,24.0,22.0,-100.00,WNW,283,4.0,9.0,90,0.00,,,0.00,2.000000,,2013-02-20 13:02:00,
2013-02-20 08:12:00,24.0,22.0,-100.00,WNW,283,4.0,9.0,90,0.00,,,0.00,2.000000,,2013-02-20 13:12:00,
2013-02-20 08:22:00,24.0,22.0,-100.00,WNW,283,4.0,9.0,90,0.00,,,0.00,2.000000,,2013-02-20 13:22:00,
2013-02-20 09:52:00,25.0,20.0,-100.00,WNW,283,6.0,14.0,81,-99.99,,,0.00,13.000000,,2013-02-20 14:52:00,
2013-02-20 10:02:00,25.0,20.0,-100.00,WNW,283,6.0,14.0,81,-99.99,,,0.00,13.000000,,2013-02-20 15:02:00,
2013-02-20 10:12:00,25.0,20.0,-100.00,WNW,283,6.0,14.0,81,-99.99,,,0.00,13.000000,,2013-02-20 15:12:00,
2013-02-20 10:22:00,25.0,20.0,-100.00,WNW,283,6.0,14.0,81,-99.99,,,0.00,13.000000,,2013-02-20 15:22:00,
2013-02-20 10:52:00,25.0,19.0,-100.00,WNW,283,6.0,15.0,77,0.00,,,0.00,19.000000,,2013-02-20 15:52:00,
2013-02-20 11:01:00,25.0,19.0,-100.00,WNW,283,6.0,15.0,77,0.00,,,0.00,19.000000,,2013-02-20 16:01:00,
2013-02-20 11:12:00,25.0,19.0,-100.00,WNW,283,6.0,15.0,77,0.00,,,0.00,19.000000,,2013-02-20 16:12:00,
2013-02-20 11:22:00,25.0,19.0,-100.00,WNW,283,6.0,15.0,77,0.00,,,0.00,19.000000,,2013-02-20 16:22:00,
2013-02-20 11:52:00,25.0,18.0,-100.00,WNW,282,6.0,11.0,74,0.00,,,0.00,24.000000,,2013-02-20 16:52:00,
2013-02-20 12:01:00,25.0,18.0,-100.00,WNW,282,6.0,11.0,74,0.00,,,0.00,24.000000,,2013-02-20 17:01:00,
2013-02-20 12:11:00,25.0,18.0,-100.00,WNW,282,6.0,11.0,74,0.00,,,0.00,24.000000,,2013-02-20 17:11:00,
2013-02-20 12:21:00,25.0,18.0,-100.00,WNW,282,6.0,11.0,74,0.00,,,0.00,24.000000,,2013-02-20 17:21:00,
2013-02-20 12:52:00,25.0,17.0,-100.00,West,278,5.0,16.0,70,0.00,,,0.00,29.000000,,2013-02-20 17:52:00,
2013-02-20 13:02:00,25.0,17.0,-100.00,West,278,5.0,16.0,70,0.00,,,0.00,29.000000,,2013-02-20 18:02:00,
2013-02-20 13:11:00,25.0,17.0,-100.00,West,278,5.0,16.0,70,0.00,,,0.00,29.000000,,2013-02-20 18:11:00,
2013-02-20 13:22:00,25.0,17.0,-100.00,West,278,5.0,16.0,70,0.00,,,0.00,29.000000,,2013-02-20 18:22:00,
2013-02-20 13:52:00,25.0,16.0,-100.00,West,273,6.0,13.0,69,0.00,,,0.00,23.000000,,2013-02-20 18:52:00,
2013-02-20 14:01:00,25.0,16.0,-100.00,West,273,6.0,13.0,69,0.00,,,0.00,23.000000,,2013-02-20 19:01:00,
2013-02-20 14:12:00,25.0,16.0,-100.00,West,273,6.0,13.0,69,0.00,,,0.00,23.000000,,2013-02-20 19:12:00,
2013-02-20 14:21:00,25.0,16.0,-100.00,West,273,6.0,13.0,69,0.00,,,0.00,23.000000,,2013-02-20 19:21:00,
2013-02-20 14:52:00,24.0,16.0,-100.00,West,269,6.0,16.0,71,0.00,,,0.00,31.000000,,2013-02-20 19:52:00,
2013-02-20 15:01:00,24.0,16.0,-100.00,West,269,6.0,16.0,71,0.00,,,0.00,31.000000,,2013-02-20 20:01:00,
2013-02-20 15:11:00,24.0,16.0,-100.00,West,269,6.0,16.0,71,0.00,,,0.00,31.000000,,2013-02-20 20:11:00,
2013-02-20 15:21:00,24.0,16.0,-100.00,West,269,6.0,16.0,71,0.00,,,0.00,31.000000,,2013-02-20 20:21:00,
2013-02-20 15:52:00,23.0,16.0,-100.00,WNW,282,7.0,13.0,75,0.00,,,0.00,25.000000,,2013-02-20 20:52:00,
2013-02-20 16:01:00,23.0,16.0,-100.00,WNW,282,7.0,13.0,75,0.00,,,0.00,25.000000,,2013-02-20 21:01:00,
2013-02-20 16:11:00,23.0,16.0,-100.00,WNW,282,7.0,13.0,75,0.00,,,0.00,25.000000,,2013-02-20 21:11:00,
2013-02-20 16:21:00,23.0,16.0,-100.00,WNW,282,7.0,13.0,75,0.00,,,0.00,25.000000,,2013-02-20 21:21:00,
2013-02-20 16:52:00,22.0,16.0,-100.00,West,277,6.0,14.0,79,0.00,,,0.00,20.000000,,2013-02-20 21:52:00,
2013-02-20 17:02:00,22.0,16.0,-100.00,West,277,6.0,14.0,79,0.00,,,0.00,20.000000,,2013-02-20 22:02:00,
2013-02-20 17:11:00,22.0,16.0,-100.00,West,277,6.0,14.0,79,0.00,,,0.00,20.000000,,2013-02-20 22:11:00,
2013-02-20 17:21:00,22.0,16.0,-100.00,West,277,6.0,14.0,79,0.00,,,0.00,20.000000,,2013-02-20 22:21:00,
2013-02-20 18:12:00,21.0,14.0,-100.00,West,277,6.0,13.0,75,0.00,,,0.00,4.000000,,2013-02-20 23:12:00,
2013-02-20 18:22:00,21.0,14.0,-100.00,West,277,6.0,13.0,75,0.00,,,0.00,4.000000,,2013-02-20 23:22:00,
2013-02-20 18:53:00,20.0,14.0,-100.00,West,277,5.0,13.0,77,0.00,,,0.00,0.000000,,2013-02-20 23:53:00,
2013-02-20 19:03:00,20.0,14.0,-100.00,West,277,5.0,13.0,77,0.00,,,0.00,0.000000,,2013-02-21 00:03:00,
2013-02-20 19:11:00,20.0,14.0,-100.00,West,277,5.0,13.0,77,0.00,,,0.00,0.000000,,2013-02-21 00:11:00,
2013-02-20 19:22:00,20.0,14.0,-100.00,West,277,5.0,13.0,77,0.00,,,0.00,0.000000,,2013-02-21 00:22:00,
2013-02-20 19:52:00,20.0,15.0,-100.00,WNW,283,4.0,9.0,81,0.00,,,0.00,0.000000,,2013-02-21 00:52:00,
2013-02-20 20:01:00,20.0,15.0,-100.00,WNW,283,4.0,9.0,81,0.00,,,0.00,0.000000,,2013-02-21 01:01:00,
2013-02-20 20:12:00,20.0,15.0,-100.00,WNW,283,4.0,9.0,81,0.00,,,0.00,0.000000,,2013-02-21 01:12:00,
2013-02-20 20:21:00,20.0,15.0,-100.00,WNW,283,4.0,9.0,81,0.00,,,0.00,0.000000,,2013-02-21 01:21:00,
2013-02-20 20:52:00,20.0,14.0,-100.00,WNW,289,6.0,12.0,77,0.00,,,0.00,0.000000,,2013-02-21 01:52:00,
2013-02-20 21:02:00,20.0,14.0,-100.00,WNW,289,6.0,12.0,77,0.00,,,0.00,0.000000,,2013-02-21 02:02:00,
2013-02-20 21:11:00,20.0,14.0,-100.00,WNW,289,6.0,12.0,77,0.00,,,0.00,0.000000,,2013-02-21 02:11:00,
2013-02-20 21:22:00,20.0,14.0,-100.00,WNW,289,6.0,12.0,77,0.00,,,0.00,0.000000,,2013-02-21 02:22:00,
2013-02-20 22:02:00,20.0,14.0,-100.00,WNW,286,6.0,15.0,78,0.00,,,0.00,0.000000,,2013-02-21 03:02:00,
2013-02-20 22:12:00,20.0,14.0,-100.00,WNW,286,6.0,15.0,78,0.00,,,0.00,0.000000,,2013-02-21 03:12:00,
2013-02-20 22:21:00,20.0,14.0,-100.00,WNW,286,6.0,15.0,78,0.00,,,0.00,0.000000,,2013-02-21 03:21:00,
2013-02-20 22:52:00,19.0,13.0,-100.00,WNW,285,7.0,16.0,78,0.00,,,0.00,0.000000,,2013-02-21 03:52:00,
2013-02-20 23:01:00,19.0,13.0,-100.00,WNW,285,7.0,16.0,78,0.00,,,0.00,0.000000,,2013-02-21 04:01:00,
2013-02-20 23:11:00,19.0,13.0,-100.00,WNW,285,7.0,16.0,78,0.00,,,0.00,0.000000,,2013-02-21 04:11:00,
2013-02-20 23:22:00,19.0,13.0,-100.00,WNW,285,7.0,16.0,78,0.00,,,0.00,0.000000,,2013-02-21 04:22:00,
2013-02-20 23:52:00,18.0,10.0,-100.00,WNW,288,9.0,21.0,70,0.00,,,0.00,0.000000,,2013-02-21 04:52:00,